Weather History for Belmar-Farmingdale, NJ

Change the Weather History Date:

Saturday, January 19, 2013

  Actual Average Record
Temperature  
Mean Temperature 38 °F -  
Max Temperature 51 °F 34 °F 51 °F (2013)
Min Temperature 26 °F 21 °F 3 °F (1997)
Degree Days  
Heating Degree Days 26    
Moisture  
Dew Point 9 °F    
Average Humidity 29    
Maximum Humidity 38    
Minimum Humidity 21    
Precipitation  
Precipitation 0.00 in - - ()
Sea Level Pressure  
Sea Level Pressure 30.21 in    
Wind  
Wind Speed 11 mph (SW)    
Max Wind Speed 18 mph    
Max Gust Speed 31 mph    
Visibility 10 miles    
Events      
Averages and records for this station are not official NWS values.
T = Trace of Precipitation, MM = Missing Value Source: NWS Daily Summary

Daily Weather History Graph

Daily Weather History Graph

Search for Another Location

Airport:

Trip Planner

Search our weather history database for the weather conditions in past years. The results will help you decide how hot, cold, wet, or windy it might be!

Date:

Astronomy

Jan. 19, 2013 Rise Set
Actual Time 7:14 AM EST 5:00 PM EST
Civil Twilight 6:45 AM EST 5:29 PM EST
Nautical Twilight 6:12 AM EST 6:02 PM EST
Astronomical Twilight 5:39 AM EST 6:35 PM EST
Moon 11:24 AM EST (1/19) 12:46 AM EST (1/19)
Length of Visible Light 10h 44m
Length of Day
9h 45m
First Quarter, 57% of the Moon is Illuminated
Jan 19
First Quarter
Jan 26
Full
Feb 3
Last Quarter
Feb 10
New
Feb 17
First Quarter

Hourly Weather History & Observations

Time (EST) Temp. Windchill Dew Point Humidity Pressure Visibility Wind Dir Wind Speed Gust Speed Precip Events Conditions
12:15 AM 26.6 °F 19.1 °F -2.2 °F 29% 30.41 in 10.0 mi South 6.9 mph - N/A   Clear
12:35 AM 26.6 °F 19.1 °F -2.2 °F 29% 30.41 in 10.0 mi SSW 6.9 mph - N/A   Clear
12:55 AM 26.6 °F 18.2 °F -4.0 °F 26% 30.42 in 10.0 mi SW 8.1 mph - N/A   Clear
1:15 AM 26.6 °F 17.5 °F -4.0 °F 26% 30.42 in 10.0 mi SSW 9.2 mph - N/A   Clear
1:35 AM 26.6 °F 18.2 °F -2.2 °F 29% 30.41 in 10.0 mi SSW 8.1 mph - N/A   Clear
1:55 AM 26.6 °F 17.5 °F -2.2 °F 29% 30.41 in 10.0 mi SW 9.2 mph - N/A   Clear
2:15 AM 28.4 °F 19.1 °F -0.4 °F 29% 30.40 in 10.0 mi SSW 10.4 mph - N/A   Clear
2:35 AM 28.4 °F 19.7 °F -0.4 °F 29% 30.40 in 10.0 mi SSW 9.2 mph - N/A   Clear
2:55 AM 28.4 °F 19.7 °F -0.4 °F 29% 30.39 in 10.0 mi SSW 9.2 mph - N/A   Clear
3:15 AM 28.4 °F 18.5 °F 1.4 °F 31% 30.38 in 10.0 mi SSW 11.5 mph - N/A   Clear
3:35 AM 28.4 °F 19.7 °F 1.4 °F 31% 30.37 in 10.0 mi SSW 9.2 mph - N/A   Clear
3:55 AM 28.4 °F 19.1 °F 1.4 °F 31% 30.36 in 10.0 mi SSW 10.4 mph - N/A   Clear
4:15 AM 30.2 °F 21.3 °F 3.2 °F 32% 30.35 in 10.0 mi SSW 10.4 mph - N/A   Clear
4:35 AM 30.2 °F 21.9 °F 1.4 °F 29% 30.34 in 10.0 mi SSW 9.2 mph 16.1 mph N/A   Clear
4:55 AM 30.2 °F 21.3 °F 1.4 °F 29% 30.34 in 10.0 mi SSW 10.4 mph 16.1 mph N/A   Clear
5:15 AM 30.2 °F 21.9 °F 1.4 °F 29% 30.34 in 10.0 mi SSW 9.2 mph - N/A   Clear
5:35 AM 30.2 °F 21.3 °F 3.2 °F 32% 30.33 in 10.0 mi SSW 10.4 mph 17.3 mph N/A   Clear
5:55 AM 32.0 °F 22.1 °F 5.0 °F 32% 30.34 in 10.0 mi SSW 13.8 mph 17.3 mph N/A   Clear
6:15 AM 32.0 °F 23.0 °F 6.8 °F 35% 30.33 in 10.0 mi SSW 11.5 mph 17.3 mph N/A   Partly Cloudy
6:35 AM 32.0 °F 22.1 °F 8.6 °F 38% 30.33 in 10.0 mi SW 13.8 mph 17.3 mph N/A   Partly Cloudy
6:55 AM 33.8 °F 25.3 °F 8.6 °F 35% 30.33 in 10.0 mi SSW 11.5 mph 19.6 mph N/A   Mostly Cloudy
7:15 AM 33.8 °F 24.8 °F 8.6 °F 35% 30.32 in 10.0 mi SW 12.7 mph 20.7 mph N/A   Mostly Cloudy
7:35 AM 33.8 °F 25.8 °F 10.4 °F 38% 30.32 in 10.0 mi SSW 10.4 mph - N/A   Clear
7:55 AM 33.8 °F 24.3 °F 10.4 °F 38% 30.31 in 10.0 mi SW 13.8 mph - N/A   Clear
8:15 AM 33.8 °F 25.8 °F 10.4 °F 38% 30.32 in 10.0 mi SW 10.4 mph 18.4 mph N/A   Clear
8:35 AM 35.6 °F 27.5 °F 10.4 °F 35% 30.32 in 10.0 mi SW 11.5 mph - N/A   Clear
8:55 AM 35.6 °F 27.1 °F 10.4 °F 35% 30.32 in 10.0 mi SW 12.7 mph 20.7 mph N/A   Clear
9:15 AM 37.4 °F 28.9 °F 10.4 °F 33% 30.32 in 10.0 mi SW 13.8 mph 24.2 mph N/A   Clear
9:35 AM 39.2 °F 30.8 °F 10.4 °F 31% 30.32 in 10.0 mi SW 15.0 mph 20.7 mph N/A   Clear
9:55 AM 39.2 °F 31.6 °F 10.4 °F 31% 30.31 in 10.0 mi SW 12.7 mph 20.7 mph N/A   Clear
10:15 AM 41.0 °F 33.5 °F 12.2 °F 31% 30.31 in 10.0 mi SW 13.8 mph 24.2 mph N/A   Clear
10:35 AM 42.8 °F 35.8 °F 10.4 °F 27% 30.29 in 10.0 mi SW 13.8 mph 21.9 mph N/A   Clear
10:55 AM 44.6 °F 38.4 °F 12.2 °F 27% 30.27 in 10.0 mi SW 12.7 mph 25.3 mph N/A   Clear
11:15 AM 44.6 °F 38.1 °F 10.4 °F 25% 30.25 in 10.0 mi SSW 13.8 mph 20.7 mph N/A   Clear
11:35 AM 46.4 °F 39.5 °F 10.4 °F 23% 30.23 in 10.0 mi SW 17.3 mph 31.1 mph N/A   Clear
11:55 AM 46.4 °F 40.1 °F 10.4 °F 23% 30.22 in 10.0 mi SSW 15.0 mph 24.2 mph N/A   Clear
12:15 PM 48.2 °F - 12.2 °F 24% 30.20 in 10.0 mi SW 11.5 mph 24.2 mph N/A   Clear
12:35 PM 48.2 °F - 12.2 °F 24% 30.18 in 10.0 mi WSW 15.0 mph 23.0 mph N/A   Clear
12:55 PM 50.0 °F - 15.8 °F 26% 30.17 in 10.0 mi SW 11.5 mph 25.3 mph N/A   Clear
1:15 PM 50.0 °F - 17.6 °F 28% 30.17 in 10.0 mi SW 18.4 mph 28.8 mph N/A   Clear
1:35 PM 51.8 °F - 14.0 °F 22% 30.16 in 10.0 mi SW 17.3 mph 24.2 mph N/A   Clear
1:55 PM 51.8 °F - 12.2 °F 21% 30.15 in 10.0 mi SW 9.2 mph 23.0 mph N/A   Clear
2:15 PM 51.8 °F - 12.2 °F 21% 30.13 in 10.0 mi SW 15.0 mph 21.9 mph N/A   Clear
2:35 PM 51.8 °F - 15.8 °F 24% 30.13 in 10.0 mi SW 13.8 mph 18.4 mph N/A   Clear
2:55 PM 51.8 °F - 15.8 °F 24% 30.12 in 10.0 mi SW 10.4 mph 18.4 mph N/A   Clear
3:15 PM 51.8 °F - 15.8 °F 24% 30.12 in 10.0 mi SW 12.7 mph 21.9 mph N/A   Clear
3:35 PM 51.8 °F - 15.8 °F 24% 30.11 in 10.0 mi SW 13.8 mph 18.4 mph N/A   Clear
3:55 PM 51.8 °F - 12.2 °F 21% 30.10 in 10.0 mi SW 15.0 mph 20.7 mph N/A   Clear
4:15 PM 51.8 °F - 12.2 °F 21% 30.10 in 10.0 mi SW 8.1 mph 16.1 mph N/A   Clear
4:35 PM 51.8 °F - 12.2 °F 21% 30.09 in 10.0 mi SSW 11.5 mph 19.6 mph N/A   Clear
4:55 PM 50.0 °F - 12.2 °F 22% 30.08 in 10.0 mi SW 11.5 mph 16.1 mph N/A   Clear
5:15 PM 48.2 °F - 12.2 °F 24% 30.08 in 10.0 mi SW 11.5 mph - N/A   Clear
5:35 PM 48.2 °F - 12.2 °F 24% 30.08 in 10.0 mi SW 9.2 mph - N/A   Clear
5:55 PM 46.4 °F 42.4 °F 12.2 °F 25% 30.08 in 10.0 mi SW 8.1 mph - N/A   Clear
6:15 PM 46.4 °F 41.9 °F 12.2 °F 25% 30.08 in 10.0 mi SW 9.2 mph - N/A   Clear
6:35 PM 46.4 °F 41.5 °F 12.2 °F 25% 30.08 in 10.0 mi SW 10.4 mph - N/A   Clear
6:55 PM 44.6 °F 39.2 °F 12.2 °F 27% 30.08 in 10.0 mi SW 10.4 mph - N/A   Clear
7:15 PM 44.6 °F 39.2 °F 12.2 °F 27% 30.08 in 10.0 mi SSW 10.4 mph - N/A   Clear
7:35 PM 44.6 °F 39.2 °F 12.2 °F 27% 30.08 in 10.0 mi SSW 10.4 mph - N/A   Clear
7:55 PM 42.8 °F 36.2 °F 12.2 °F 29% 30.07 in 10.0 mi SSW 12.7 mph 18.4 mph N/A   Clear
8:15 PM 42.8 °F 36.6 °F 12.2 °F 29% 30.06 in 10.0 mi SSW 11.5 mph 17.3 mph N/A   Clear
8:35 PM 42.8 °F 37.0 °F 15.8 °F 34% 30.05 in 10.0 mi SSW 10.4 mph 17.3 mph N/A   Clear
8:55 PM 42.8 °F 36.6 °F 15.8 °F 34% 30.04 in 10.0 mi SSW 11.5 mph 19.6 mph N/A   Clear
9:15 PM 42.8 °F 36.6 °F 14.0 °F 31% 30.04 in 10.0 mi SW 11.5 mph 20.7 mph N/A   Clear
9:35 PM 41.0 °F 33.9 °F 12.2 °F 31% 30.03 in 10.0 mi SSW 12.7 mph 18.4 mph N/A   Clear
9:55 PM 42.8 °F 35.8 °F 12.2 °F 29% 30.02 in 10.0 mi SW 13.8 mph 20.7 mph N/A   Clear
10:15 PM 42.8 °F 36.2 °F 12.2 °F 29% 30.01 in 10.0 mi SW 12.7 mph 21.9 mph N/A   Clear
10:35 PM 41.0 °F 34.3 °F 14.0 °F 33% 30.01 in 10.0 mi SW 11.5 mph 20.7 mph N/A   Clear
10:55 PM 41.0 °F 33.9 °F 14.0 °F 33% 29.99 in 10.0 mi SW 12.7 mph 18.4 mph N/A   Clear
11:15 PM 41.0 °F 33.5 °F 14.0 °F 33% 29.98 in 10.0 mi SSW 13.8 mph - N/A   Clear
11:35 PM 41.0 °F 34.3 °F 14.0 °F 33% 29.97 in 10.0 mi SSW 11.5 mph - N/A   Clear
11:55 PM 41.0 °F 33.5 °F 14.0 °F 33% 29.95 in 10.0 mi SSW 13.8 mph 20.7 mph N/A   Clear